Location: Baggettsville
(36.4767°N, 86.7303°W)
Time: 09:10:09
(UTC+00:00)

Okean O Rocket - Pass Details

Date: 29 October 2020
Orbit: 623 x 644 km, 98.2° (Epoch: 04 December)

Event Time Altitude Azimuth Distance (km) Brightness Sun altitude
Rises 23:48:40 0° 185° (S) 2,907 5.2 -11.8°
Reaches altitude 10° 23:51:00 10° 194° (SSW) 2,001 4.5 -12.2°
Maximum altitude 23:55:02 37° 261° (W) 981 3.3 -13.0°
Drops below altitude 10° 23:59:04 10° 329° (NNW) 2,004 4.5 -13.8°
Sets 00:01:24 0° 338° (NNW) 2,913 5.2 -14.3°
